Simultaneous Nadir Overpasses (SNOs) Predictions

Prediction of SNOs between METOP-B and TERRA Satellite Orbit:

Table of predicted SNOs for the next 14.0 days since TLE Epoch: 9/7/2013
Index Date (METOP-B) Time (METOP-B) Lat,Lon (METOP-B) SZA (METOP-B ) Date (TERRA) Time (TERRA) Lat,Lon (TERRA) SZA (TERRA ) Distance(km) Time Diff (sec)
1 09/09/2013 07:04:37 -81.30, -59.31 101.09 09/09/2013 07:05:44 -81.30, -59.45 101.08 2.41 67
2 09/09/2013 07:55:17 81.31, 108.22 78.95 09/09/2013 07:55:10 81.30, 108.27 78.95 0.99 7
3 09/12/2013 02:38:59 -81.30, 7.16 99.99 09/12/2013 02:39:58 -81.30, 7.10 99.97 0.98 59
4 09/12/2013 03:29:38 81.31, 174.70 80.05 09/12/2013 03:29:23 81.31, 174.79 80.06 1.48 15
5 09/14/2013 22:13:20 -81.30, 73.59 98.89 09/14/2013 22:14:11 -81.30, 73.54 98.87 0.91 51
6 09/1
